Time,TemperatureF,DewpointF,PressureIn,WindDirection,WindDirectionDegrees,WindSpeedMPH,WindSpeedGustMPH,Humidity,HourlyPrecipIn,Conditions,Clouds,dailyrainin,SoftwareType,DateUTC
2013-01-07 00:01:00,71.0,67.0,30.05,East,96,10.0,30.0,86,0.00,,,0.00,,2013-01-07 10:01:00,
2013-01-07 00:11:00,71.0,67.0,30.04,ENE,67,3.0,25.0,86,0.00,,,0.00,,2013-01-07 10:11:00,
2013-01-07 00:22:00,71.0,67.0,30.04,ENE,67,3.0,25.0,86,0.00,,,0.00,,2013-01-07 10:22:00,
2013-01-07 00:32:00,71.0,67.0,30.03,NE,42,8.0,24.0,86,0.00,,,0.00,,2013-01-07 10:32:00,
2013-01-07 00:42:00,71.0,67.0,30.03,NE,42,8.0,24.0,86,0.00,,,0.00,,2013-01-07 10:42:00,
2013-01-07 00:52:00,70.0,66.0,30.03,East,92,15.0,24.0,86,0.00,,,0.00,,2013-01-07 10:52:00,
2013-01-07 01:02:00,71.0,67.0,30.02,East,98,13.0,26.0,87,0.00,,,0.00,,2013-01-07 11:02:00,
2013-01-07 01:11:00,71.0,67.0,30.02,East,98,13.0,26.0,87,0.00,,,0.00,,2013-01-07 11:11:00,
2013-01-07 01:22:00,71.0,67.0,30.03,ENE,76,14.0,22.0,87,0.00,,,0.00,,2013-01-07 11:22:00,
2013-01-07 01:32:00,71.0,67.0,30.03,East,83,6.0,19.0,86,0.00,,,0.00,,2013-01-07 11:32:00,
2013-01-07 01:42:00,71.0,67.0,30.03,East,83,6.0,19.0,86,0.00,,,0.00,,2013-01-07 11:42:00,
2013-01-07 01:53:00,71.0,67.0,30.02,East,84,13.0,24.0,87,0.00,,,0.00,,2013-01-07 11:53:00,
2013-01-07 02:02:00,71.0,67.0,30.02,ENE,77,18.0,24.0,86,0.00,,,0.00,,2013-01-07 12:02:00,
2013-01-07 02:12:00,71.0,67.0,30.02,NE,44,10.0,20.0,86,0.00,,,0.00,,2013-01-07 12:12:00,
2013-01-07 02:22:00,71.0,67.0,30.02,NE,44,10.0,20.0,86,0.00,,,0.00,,2013-01-07 12:22:00,
2013-01-07 02:32:00,71.0,67.0,30.01,East,88,14.0,18.0,86,0.00,,,0.00,,2013-01-07 12:32:00,
2013-01-07 02:42:00,71.0,67.0,30.01,East,88,14.0,18.0,86,0.00,,,0.00,,2013-01-07 12:42:00,
2013-01-07 02:52:00,71.0,67.0,30.01,ESE,107,15.0,24.0,86,0.00,,,0.00,,2013-01-07 12:52:00,
2013-01-07 03:02:00,71.0,66.0,30.01,NE,56,22.0,23.0,85,0.00,,,0.00,,2013-01-07 13:02:00,
2013-01-07 03:11:00,71.0,66.0,30.01,NE,56,22.0,23.0,85,0.00,,,0.00,,2013-01-07 13:11:00,
2013-01-07 03:22:00,71.0,66.0,30.01,ENE,70,24.0,24.0,85,0.00,,,0.00,,2013-01-07 13:22:00,
2013-01-07 03:32:00,71.0,66.0,30.01,ENE,66,9.0,23.0,85,0.00,,,0.00,,2013-01-07 13:32:00,
2013-01-07 03:42:00,71.0,66.0,30.01,ENE,66,9.0,23.0,85,0.00,,,0.00,,2013-01-07 13:42:00,
2013-01-07 03:53:00,71.0,66.0,30.01,East,90,8.0,21.0,84,0.00,,,0.00,,2013-01-07 13:53:00,
2013-01-07 04:02:00,71.0,66.0,30.01,ENE,69,10.0,19.0,84,0.00,,,0.00,,2013-01-07 14:02:00,
2013-01-07 04:12:00,71.0,66.0,30.01,ENE,71,12.0,15.0,84,0.00,,,0.00,,2013-01-07 14:12:00,
2013-01-07 04:22:00,71.0,66.0,30.01,ENE,71,12.0,15.0,84,0.00,,,0.00,,2013-01-07 14:22:00,
2013-01-07 04:32:00,72.0,67.0,30.01,East,93,14.0,17.0,84,0.00,,,0.00,,2013-01-07 14:32:00,
2013-01-07 04:42:00,72.0,67.0,30.01,East,93,14.0,17.0,84,0.00,,,0.00,,2013-01-07 14:42:00,
2013-01-07 04:53:00,72.0,67.0,30.01,ENE,58,10.0,22.0,84,0.00,,,0.00,,2013-01-07 14:53:00,
2013-01-07 05:02:00,71.0,66.0,30.02,East,99,13.0,25.0,84,0.00,,,0.00,,2013-01-07 15:02:00,
2013-01-07 05:12:00,71.0,66.0,30.02,East,99,13.0,25.0,84,0.00,,,0.00,,2013-01-07 15:12:00,
2013-01-07 05:22:00,71.0,66.0,30.02,East,97,14.0,20.0,84,0.00,,,0.00,,2013-01-07 15:22:00,
2013-01-07 05:33:00,71.0,66.0,30.02,East,93,6.0,22.0,83,0.00,,,0.00,,2013-01-07 15:33:00,
2013-01-07 05:42:00,71.0,66.0,30.02,East,93,6.0,22.0,83,0.00,,,0.00,,2013-01-07 15:42:00,
2013-01-07 05:53:00,71.0,66.0,30.01,East,80,13.0,26.0,83,0.00,,,0.00,,2013-01-07 15:53:00,
2013-01-07 06:02:00,71.0,66.0,30.02,East,95,14.0,21.0,83,0.00,,,0.00,,2013-01-07 16:02:00,
2013-01-07 06:11:00,71.0,66.0,30.02,East,95,14.0,21.0,83,0.00,,,0.00,,2013-01-07 16:11:00,
2013-01-07 06:22:00,71.0,66.0,30.02,East,81,7.0,22.0,83,0.00,,,0.00,,2013-01-07 16:22:00,
2013-01-07 06:32:00,71.0,66.0,30.02,East,84,10.0,19.0,84,0.00,,,0.00,,2013-01-07 16:32:00,
2013-01-07 06:42:00,71.0,66.0,30.02,East,84,10.0,19.0,84,0.00,,,0.00,,2013-01-07 16:42:00,
2013-01-07 06:53:00,71.0,66.0,30.03,ENE,65,9.0,25.0,84,0.00,,,0.00,,2013-01-07 16:53:00,
2013-01-07 07:02:00,71.0,66.0,30.03,NE,43,6.0,23.0,85,0.00,,,0.00,,2013-01-07 17:02:00,
2013-01-07 07:11:00,71.0,66.0,30.03,NE,43,6.0,23.0,85,0.00,,,0.00,,2013-01-07 17:11:00,
2013-01-07 07:22:00,71.0,66.0,30.04,ENE,57,8.0,24.0,85,0.00,,,0.00,,2013-01-07 17:22:00,
2013-01-07 07:32:00,70.0,65.0,30.05,ESE,103,7.0,23.0,84,0.00,,,0.00,,2013-01-07 17:32:00,
2013-01-07 07:42:00,70.0,65.0,30.05,ESE,103,7.0,23.0,84,0.00,,,0.00,,2013-01-07 17:42:00,
2013-01-07 07:53:00,71.0,66.0,30.06,ENE,71,5.0,16.0,85,0.00,,,0.00,,2013-01-07 17:53:00,
2013-01-07 08:02:00,71.0,66.0,30.06,East,89,10.0,18.0,85,0.00,,,0.00,,2013-01-07 18:02:00,
2013-01-07 08:12:00,71.0,66.0,30.06,East,89,10.0,18.0,85,0.00,,,0.00,,2013-01-07 18:12:00,
2013-01-07 08:22:00,71.0,66.0,30.06,East,89,10.0,19.0,85,0.00,,,0.00,,2013-01-07 18:22:00,
2013-01-07 08:32:00,71.0,66.0,30.06,East,89,16.0,26.0,84,0.00,,,0.00,,2013-01-07 18:32:00,
2013-01-07 08:42:00,71.0,66.0,30.06,East,98,10.0,31.0,84,0.00,,,0.00,,2013-01-07 18:42:00,
2013-01-07 08:52:00,71.0,66.0,30.06,East,98,10.0,31.0,84,0.00,,,0.00,,2013-01-07 18:52:00,
2013-01-07 09:02:00,72.0,67.0,30.07,East,95,16.0,26.0,84,0.00,,,0.00,,2013-01-07 19:02:00,
2013-01-07 09:12:00,72.0,67.0,30.07,East,95,16.0,26.0,84,0.00,,,0.00,,2013-01-07 19:12:00,
2013-01-07 09:22:00,72.0,67.0,30.08,ENE,71,15.0,18.0,84,0.00,,,0.00,,2013-01-07 19:22:00,
2013-01-07 09:33:00,72.0,67.0,30.08,East,84,22.0,25.0,84,0.00,,,0.00,,2013-01-07 19:33:00,
2013-01-07 09:42:00,72.0,67.0,30.08,East,84,22.0,25.0,84,0.00,,,0.00,,2013-01-07 19:42:00,
2013-01-07 09:53:00,72.0,67.0,30.07,ENE,77,8.0,22.0,84,0.00,,,0.00,,2013-01-07 19:53:00,
2013-01-07 10:02:00,72.0,67.0,30.08,NE,34,11.0,30.0,84,0.00,,,0.00,,2013-01-07 20:02:00,
2013-01-07 10:11:00,72.0,67.0,30.08,NE,34,11.0,30.0,84,0.00,,,0.00,,2013-01-07 20:11:00,
2013-01-07 10:22:00,73.0,68.0,30.07,East,79,10.0,22.0,84,0.00,,,0.00,,2013-01-07 20:22:00,
2013-01-07 10:32:00,73.0,68.0,30.07,NE,42,12.0,22.0,83,0.00,,,0.00,,2013-01-07 20:32:00,
2013-01-07 10:42:00,73.0,68.0,30.07,NE,42,12.0,22.0,83,0.00,,,0.00,,2013-01-07 20:42:00,
2013-01-07 10:53:00,74.0,68.0,30.08,NE,46,10.0,24.0,82,0.00,,,0.00,,2013-01-07 20:53:00,
2013-01-07 11:02:00,75.0,68.0,30.08,ENE,64,11.0,20.0,80,0.00,,,0.00,,2013-01-07 21:02:00,
2013-01-07 11:11:00,75.0,68.0,30.08,ENE,64,11.0,20.0,80,0.00,,,0.00,,2013-01-07 21:11:00,
2013-01-07 11:22:00,75.0,69.0,30.07,NE,36,7.0,15.0,81,0.00,,,0.00,,2013-01-07 21:22:00,
2013-01-07 11:32:00,76.0,69.0,30.06,NE,53,7.0,22.0,78,0.00,,,0.00,,2013-01-07 21:32:00,
2013-01-07 11:42:00,76.0,69.0,30.06,NE,53,7.0,22.0,78,0.00,,,0.00,,2013-01-07 21:42:00,
2013-01-07 11:53:00,75.0,68.0,30.05,NE,42,6.0,29.0,78,0.00,,,0.00,,2013-01-07 21:53:00,
2013-01-07 12:02:00,74.0,68.0,30.05,ENE,69,15.0,23.0,81,0.00,,,0.00,,2013-01-07 22:02:00,
2013-01-07 12:11:00,74.0,68.0,30.05,ENE,69,15.0,23.0,81,0.00,,,0.00,,2013-01-07 22:11:00,
2013-01-07 12:22:00,76.0,69.0,30.04,ENE,65,12.0,26.0,80,0.00,,,0.00,,2013-01-07 22:22:00,
2013-01-07 12:33:00,76.0,69.0,30.03,ENE,73,10.0,19.0,78,0.00,,,0.00,,2013-01-07 22:33:00,
2013-01-07 12:42:00,76.0,69.0,30.03,ENE,73,10.0,19.0,78,0.00,,,0.00,,2013-01-07 22:42:00,
2013-01-07 12:53:00,76.0,69.0,30.01,East,88,14.0,26.0,78,0.00,,,0.00,,2013-01-07 22:53:00,
2013-01-07 13:02:00,77.0,69.0,30.01,ENE,59,5.0,20.0,76,0.00,,,0.00,,2013-01-07 23:02:00,
2013-01-07 13:11:00,77.0,69.0,30.01,ENE,59,5.0,20.0,76,0.00,,,0.00,,2013-01-07 23:11:00,
2013-01-07 13:22:00,78.0,69.0,30.00,ENE,74,5.0,18.0,75,0.00,,,0.00,,2013-01-07 23:22:00,
2013-01-07 13:32:00,78.0,69.0,30.00,ENE,67,7.0,19.0,74,0.00,,,0.00,,2013-01-07 23:32:00,
2013-01-07 13:42:00,78.0,69.0,30.00,ENE,67,7.0,19.0,74,0.00,,,0.00,,2013-01-07 23:42:00,
2013-01-07 13:53:00,78.0,69.0,29.98,East,93,7.0,18.0,74,0.00,,,0.00,,2013-01-07 23:53:00,
2013-01-07 14:02:00,77.0,68.0,29.98,ENE,71,7.0,18.0,74,0.00,,,0.00,,2013-01-08 00:02:00,
2013-01-07 14:11:00,77.0,68.0,29.98,ENE,71,7.0,18.0,74,0.00,,,0.00,,2013-01-08 00:11:00,
2013-01-07 14:22:00,78.0,69.0,29.98,NE,44,8.0,16.0,73,0.00,,,0.00,,2013-01-08 00:22:00,
2013-01-07 14:32:00,78.0,69.0,29.98,NE,46,5.0,17.0,75,0.00,,,0.00,,2013-01-08 00:32:00,
2013-01-07 14:42:00,78.0,69.0,29.98,NE,46,5.0,17.0,75,0.00,,,0.00,,2013-01-08 00:42:00,
2013-01-07 14:52:00,77.0,68.0,29.97,East,79,13.0,20.0,75,0.00,,,0.00,,2013-01-08 00:52:00,
2013-01-07 15:02:00,77.0,68.0,29.97,NE,35,8.0,18.0,75,0.00,,,0.00,,2013-01-08 01:02:00,
2013-01-07 15:11:00,77.0,68.0,29.97,NE,35,8.0,18.0,75,0.00,,,0.00,,2013-01-08 01:11:00,
2013-01-07 15:22:00,77.0,68.0,29.97,ENE,70,7.0,17.0,75,0.00,,,0.00,,2013-01-08 01:22:00,
2013-01-07 15:32:00,76.0,68.0,29.97,ENE,63,5.0,24.0,76,0.00,,,0.00,,2013-01-08 01:32:00,
2013-01-07 15:42:00,76.0,68.0,29.97,ENE,63,5.0,24.0,76,0.00,,,0.00,,2013-01-08 01:42:00,
2013-01-07 15:52:00,76.0,68.0,29.96,East,86,8.0,18.0,77,0.00,,,0.00,,2013-01-08 01:52:00,
2013-01-07 16:02:00,76.0,69.0,29.97,NE,52,7.0,21.0,78,0.00,,,0.00,,2013-01-08 02:02:00,
2013-01-07 16:11:00,76.0,69.0,29.97,NE,52,7.0,21.0,78,0.00,,,0.00,,2013-01-08 02:11:00,
2013-01-07 16:22:00,75.0,68.0,29.97,East,82,17.0,21.0,78,0.00,,,0.00,,2013-01-08 02:22:00,
2013-01-07 16:32:00,76.0,68.0,29.97,NNE,28,14.0,23.0,77,0.00,,,0.00,,2013-01-08 02:32:00,
2013-01-07 16:42:00,76.0,68.0,29.97,NNE,28,14.0,23.0,77,0.00,,,0.00,,2013-01-08 02:42:00,
2013-01-07 16:53:00,75.0,68.0,29.98,NNE,24,11.0,20.0,78,0.00,,,0.00,,2013-01-08 02:53:00,
2013-01-07 17:02:00,75.0,68.0,29.97,North,11,15.0,29.0,80,0.00,,,0.00,,2013-01-08 03:02:00,
2013-01-07 17:11:00,75.0,68.0,29.97,North,11,15.0,29.0,80,0.00,,,0.00,,2013-01-08 03:11:00,
2013-01-07 17:22:00,75.0,68.0,29.97,ENE,60,21.0,21.0,80,0.00,,,0.00,,2013-01-08 03:22:00,
2013-01-07 17:32:00,73.0,66.0,29.97,NE,47,8.0,24.0,79,0.00,,,0.00,,2013-01-08 03:32:00,
2013-01-07 17:42:00,73.0,66.0,29.97,NE,47,8.0,24.0,79,0.00,,,0.00,,2013-01-08 03:42:00,
2013-01-07 17:53:00,73.0,66.0,29.98,ENE,57,9.0,28.0,79,0.00,,,0.00,,2013-01-08 03:53:00,
2013-01-07 18:02:00,73.0,66.0,29.98,NE,41,9.0,29.0,80,0.00,,,0.00,,2013-01-08 04:02:00,
2013-01-07 18:11:00,73.0,66.0,29.98,NE,41,9.0,29.0,80,0.00,,,0.00,,2013-01-08 04:11:00,
2013-01-07 18:22:00,73.0,67.0,29.98,ENE,61,4.0,24.0,81,0.00,,,0.00,,2013-01-08 04:22:00,
2013-01-07 18:32:00,72.0,66.0,29.99,NNE,19,11.0,28.0,82,0.00,,,0.00,,2013-01-08 04:32:00,
2013-01-07 18:42:00,72.0,66.0,29.99,NNE,19,11.0,28.0,82,0.00,,,0.00,,2013-01-08 04:42:00,
2013-01-07 18:52:00,72.0,67.0,29.99,NE,40,8.0,24.0,83,0.00,,,0.00,,2013-01-08 04:52:00,
2013-01-07 19:02:00,72.0,67.0,30.01,East,81,18.0,27.0,84,0.00,,,0.00,,2013-01-08 05:02:00,
2013-01-07 19:12:00,72.0,67.0,30.01,East,81,18.0,27.0,84,0.00,,,0.00,,2013-01-08 05:12:00,
2013-01-07 19:22:00,72.0,67.0,30.01,ENE,65,5.0,17.0,84,0.00,,,0.00,,2013-01-08 05:22:00,
2013-01-07 19:32:00,71.0,66.0,30.01,ENE,75,9.0,23.0,84,0.00,,,0.00,,2013-01-08 05:32:00,
2013-01-07 19:42:00,71.0,66.0,30.01,ENE,75,9.0,23.0,84,0.00,,,0.00,,2013-01-08 05:42:00,
2013-01-07 19:53:00,71.0,66.0,30.01,North,5,4.0,18.0,84,0.00,,,0.00,,2013-01-08 05:53:00,
2013-01-07 20:02:00,71.0,66.0,30.01,NE,47,8.0,29.0,84,0.00,,,0.00,,2013-01-08 06:02:00,
2013-01-07 20:11:00,71.0,66.0,30.01,NE,47,8.0,29.0,84,0.00,,,0.00,,2013-01-08 06:11:00,
2013-01-07 20:22:00,71.0,66.0,30.01,East,86,13.0,22.0,84,0.00,,,0.00,,2013-01-08 06:22:00,
2013-01-07 20:32:00,71.0,66.0,30.01,ENE,60,14.0,17.0,84,0.00,,,0.00,,2013-01-08 06:32:00,
2013-01-07 20:42:00,71.0,66.0,30.01,ENE,60,14.0,17.0,84,0.00,,,0.00,,2013-01-08 06:42:00,
2013-01-07 20:52:00,71.0,66.0,30.02,ENE,63,15.0,19.0,84,0.00,,,0.00,,2013-01-08 06:52:00,
2013-01-07 21:01:00,71.0,66.0,30.01,ENE,59,11.0,21.0,83,0.00,,,0.00,,2013-01-08 07:01:00,
2013-01-07 21:11:00,71.0,66.0,30.01,ENE,59,11.0,21.0,83,0.00,,,0.00,,2013-01-08 07:11:00,
2013-01-07 21:22:00,71.0,66.0,30.02,East,89,18.0,22.0,83,0.00,,,0.00,,2013-01-08 07:22:00,
2013-01-07 21:32:00,71.0,65.0,30.01,NE,41,14.0,22.0,82,0.00,,,0.00,,2013-01-08 07:32:00,
2013-01-07 21:42:00,71.0,65.0,30.01,NE,41,14.0,22.0,82,0.00,,,0.00,,2013-01-08 07:42:00,
2013-01-07 21:52:00,71.0,65.0,30.02,NE,45,9.0,24.0,82,0.00,,,0.00,,2013-01-08 07:52:00,
2013-01-07 22:01:00,71.0,66.0,30.02,NNE,18,9.0,19.0,83,0.00,,,0.00,,2013-01-08 08:01:00,
2013-01-07 22:11:00,71.0,66.0,30.02,NNE,18,9.0,19.0,83,0.00,,,0.00,,2013-01-08 08:11:00,
2013-01-07 22:22:00,71.0,66.0,30.03,ENE,73,5.0,25.0,83,0.00,,,0.00,,2013-01-08 08:22:00,
2013-01-07 22:32:00,71.0,66.0,30.03,ENE,72,7.0,21.0,83,0.00,,,0.00,,2013-01-08 08:32:00,
2013-01-07 22:42:00,71.0,66.0,30.03,ENE,72,7.0,21.0,83,0.00,,,0.00,,2013-01-08 08:42:00,
2013-01-07 22:52:00,71.0,66.0,30.03,ENE,72,11.0,17.0,83,0.00,,,0.00,,2013-01-08 08:52:00,
2013-01-07 23:02:00,71.0,66.0,30.03,ENE,65,9.0,19.0,83,0.00,,,0.00,,2013-01-08 09:02:00,
2013-01-07 23:11:00,71.0,66.0,30.03,East,86,10.0,19.0,84,0.00,,,0.00,,2013-01-08 09:11:00,
2013-01-07 23:22:00,71.0,66.0,30.03,East,86,10.0,19.0,84,0.00,,,0.00,,2013-01-08 09:22:00,
2013-01-07 23:32:00,71.0,66.0,30.02,ENE,57,12.0,27.0,84,0.00,,,0.00,,2013-01-08 09:32:00,
2013-01-07 23:42:00,71.0,66.0,30.02,ENE,57,12.0,27.0,84,0.00,,,0.00,,2013-01-08 09:42:00,
2013-01-07 23:52:00,71.0,66.0,30.01,NE,40,11.0,26.0,84,0.00,,,0.00,,2013-01-08 09:52:00,